,,,PA_Meas_PMT16A,,PR_Meas_QMR101_102,,RH_Meas_QMH101,,SR_Meas_QMS101,,TA_Meas_QMH101,,GenWind,,GenWind,
date,time,status,PA,status,PR,status,RH,status,SR,status,TA,status,DirAvg,status,SpdAvg,
2009-07-05, 00:00:04,VALID,1004.97,VALID,0,VALID,90.6769,VALID,0,VALID,24.13,VALID,11,VALID,0.321875,
2009-07-05, 00:01:04,VALID,1004.93,VALID,0,VALID,90.5396,VALID,0,VALID,24.13,VALID,360,VALID,0.0960938,
2009-07-05, 00:02:04,VALID,1004.95,VALID,0,VALID,90.6158,VALID,0,VALID,24.1494,VALID,359,VALID,0.378125,
2009-07-05, 00:03:04,VALID,1004.9,VALID,0,VALID,90.4862,VALID,0,VALID,24.1902,VALID,300,VALID,0.156641,
2009-07-05, 00:04:04,VALID,1004.88,VALID,0,VALID,90.2191,VALID,0,VALID,24.2097,VALID,313,VALID,0.665234,
2009-07-05, 00:05:04,VALID,1004.85,VALID,0,VALID,89.8072,VALID,0,VALID,24.1884,VALID,330,VALID,0.884375,
2009-07-05, 00:06:04,VALID,1004.8,VALID,0,VALID,89.7538,VALID,0,VALID,24.2291,VALID,1,VALID,0.540625,
2009-07-05, 00:07:04,VALID,1004.83,VALID,0,VALID,89.7233,VALID,0,VALID,24.2078,VALID,358,VALID,0.498047,
2009-07-05, 00:08:04,VALID,1004.77,VALID,0,VALID,89.7461,VALID,0.100563,VALID,24.2078,VALID,354,VALID,0.733984,
2009-07-05, 00:09:04,VALID,1004.78,VALID,0,VALID,89.8377,VALID,0,VALID,24.1689,VALID,353,VALID,0.574219,
2009-07-05, 00:10:05,VALID,1004.77,VALID,0,VALID,89.5859,VALID,0.100563,VALID,24.1494,VALID,349,VALID,0.863672,
2009-07-05, 00:11:05,VALID,1004.76,VALID,0,VALID,89.6088,VALID,0,VALID,24.1689,VALID,332,VALID,0.665234,
2009-07-05, 00:12:05,VALID,1004.74,VALID,0,VALID,89.3952,VALID,0,VALID,24.1902,VALID,344,VALID,0.869141,
2009-07-05, 00:13:05,VALID,1004.75,VALID,0,VALID,89.3266,VALID,0,VALID,24.2097,VALID,348,VALID,0.384766,
2009-07-05, 00:14:05,VALID,1004.73,VALID,0,VALID,89.2426,VALID,0,VALID,24.2078,VALID,353,VALID,0.516406,
2009-07-05, 00:15:05,VALID,1004.74,VALID,0,VALID,89.2808,VALID,0,VALID,24.2291,VALID,354,VALID,0.283984,
2009-07-05, 00:16:05,VALID,1004.74,VALID,0,VALID,89.3189,VALID,0,VALID,24.2291,VALID,319,VALID,1.07852,
2009-07-05, 00:17:05,VALID,1004.76,VALID,0,VALID,89.0061,VALID,0,VALID,24.2504,VALID,356,VALID,0.954297,
2009-07-05, 00:18:05,VALID,1004.77,VALID,0,VALID,88.9451,VALID,0,VALID,24.2681,VALID,351,VALID,0.445313,
2009-07-05, 00:19:05,VALID,1004.76,VALID,0,VALID,88.9527,VALID,0,VALID,24.2468,VALID,344,VALID,0.142578,
2009-07-05, 00:20:05,VALID,1004.74,VALID,0,VALID,89.0138,VALID,0,VALID,24.2875,VALID,350,VALID,0.65625,
2009-07-05, 00:21:05,VALID,1004.74,VALID,0,VALID,88.7086,VALID,0,VALID,24.2875,VALID,336,VALID,0.367969,
2009-07-05, 00:22:05,VALID,1004.75,VALID,0,VALID,88.6476,VALID,0,VALID,24.2875,VALID,305,VALID,0.364453,
2009-07-05, 00:23:05,VALID,1004.78,VALID,0,VALID,88.4492,VALID,0,VALID,24.307,VALID,329,VALID,0.565234,
2009-07-05, 00:24:05,VALID,1004.79,VALID,0,VALID,88.2127,VALID,0,VALID,24.3283,VALID,356,VALID,0.301953,
2009-07-05, 00:25:05,VALID,1004.78,VALID,0,VALID,87.8923,VALID,0,VALID,24.3283,VALID,354,VALID,0.731641,
2009-07-05, 00:26:05,VALID,1004.81,VALID,0,VALID,87.8847,VALID,0,VALID,24.3265,VALID,340,VALID,0.569531,
2009-07-05, 00:27:05,VALID,1004.77,VALID,0,VALID,87.694,VALID,0,VALID,24.3459,VALID,350,VALID,0.742969,
2009-07-05, 00:28:05,VALID,1004.78,VALID,0,VALID,87.4956,VALID,0,VALID,24.3459,VALID,313,VALID,0.475,
2009-07-05, 00:29:05,VALID,1004.78,VALID,0,VALID,87.221,VALID,0,VALID,24.3654,VALID,283,VALID,0.329688,
2009-07-05, 00:30:05,VALID,1004.78,VALID,0,VALID,87.4422,VALID,0,VALID,24.3849,VALID,291,VALID,0.345703,
2009-07-05, 00:31:05,VALID,1004.76,VALID,0,VALID,87.16,VALID,0,VALID,24.4062,VALID,280,VALID,0.863672,
2009-07-05, 00:32:05,VALID,1004.79,VALID,0,VALID,87.0303,VALID,0,VALID,24.4043,VALID,355,VALID,0.873438,
2009-07-05, 00:33:05,VALID,1004.79,VALID,0,VALID,87.0532,VALID,0,VALID,24.4257,VALID,2,VALID,0.355859,
2009-07-05, 00:34:05,VALID,1004.77,VALID,0,VALID,86.9006,VALID,0,VALID,24.4238,VALID,352,VALID,0.484766,
2009-07-05, 00:35:05,VALID,1004.77,VALID,0,VALID,87.0074,VALID,0,VALID,24.4238,VALID,271,VALID,0.607813,
2009-07-05, 00:36:05,VALID,1004.73,VALID,0,VALID,86.8548,VALID,0,VALID,24.4238,VALID,318,VALID,0.178906,
2009-07-05, 00:37:05,VALID,1004.72,VALID,0,VALID,86.8243,VALID,0,VALID,24.4257,VALID,285,VALID,0.350781,
2009-07-05, 00:38:05,VALID,1004.73,VALID,0,VALID,86.8395,VALID,0,VALID,24.4238,VALID,338,VALID,0.0339844,
2009-07-05, 00:39:05,VALID,1004.71,VALID,0,VALID,86.7709,VALID,0,VALID,24.4451,VALID,312,VALID,0.269922,
2009-07-05, 00:40:05,VALID,1004.73,VALID,0,VALID,86.9845,VALID,0,VALID,24.4238,VALID,312,VALID,0.171875,
2009-07-05, 00:41:05,VALID,1004.71,VALID,0,VALID,86.8167,VALID,0,VALID,24.4238,VALID,312,VALID,0.23125,
2009-07-05, 00:42:05,VALID,1004.68,VALID,0,VALID,87.015,VALID,0,VALID,24.4025,VALID,312,VALID,0.000390625,
2009-07-05, 00:43:05,VALID,1004.69,VALID,0,VALID,87.3812,VALID,0.100563,VALID,24.383,VALID,312,VALID,0.0988281,
2009-07-05, 00:44:05,VALID,1004.7,VALID,0,VALID,87.8084,VALID,0,VALID,24.4025,VALID,312,VALID,0.0746094,
2009-07-05, 00:45:05,VALID,1004.67,VALID,0,VALID,87.9305,VALID,0,VALID,24.3636,VALID,289,VALID,0.14375,
2009-07-05, 00:46:05,VALID,1004.64,VALID,0,VALID,87.7398,VALID,0,VALID,24.3441,VALID,289,VALID,0.213672,
2009-07-05, 00:47:05,VALID,1004.69,VALID,0,VALID,87.8923,VALID,0.100563,VALID,24.3867,VALID,289,VALID,0.300391,
2009-07-05, 00:48:05,VALID,1004.66,VALID,0,VALID,87.5109,VALID,0.100563,VALID,24.3654,VALID,294,VALID,1.40469,
2009-07-05, 00:49:05,VALID,1004.66,VALID,0,VALID,87.5795,VALID,0,VALID,24.3441,VALID,291,VALID,1.69961,
2009-07-05, 00:50:05,VALID,1004.62,VALID,0,VALID,87.6253,VALID,0,VALID,24.3246,VALID,279,VALID,0.935156,
2009-07-05, 00:51:05,VALID,1004.6,VALID,0,VALID,87.8694,VALID,0,VALID,24.3654,VALID,271,VALID,0.160547,
2009-07-05, 00:52:05,VALID,1004.59,VALID,0,VALID,87.8542,VALID,0.100563,VALID,24.3441,VALID,353,VALID,0.439453,
2009-07-05, 00:53:05,VALID,1004.58,VALID,0,VALID,87.8847,VALID,0,VALID,24.3654,VALID,350,VALID,0.198437,
2009-07-05, 00:54:05,VALID,1004.55,VALID,0,VALID,88.1059,VALID,0,VALID,24.3459,VALID,350,VALID,0.255469,
2009-07-05, 00:55:05,VALID,1004.52,VALID,0,VALID,88.1212,VALID,0,VALID,24.3459,VALID,356,VALID,0.0300781,
2009-07-05, 00:56:05,VALID,1004.48,VALID,0,VALID,87.9381,VALID,0.100563,VALID,24.3265,VALID,356,VALID,0.171875,
2009-07-05, 00:57:05,VALID,1004.48,VALID,0,VALID,87.961,VALID,0,VALID,24.3459,VALID,296,VALID,0.180859,
2009-07-05, 00:58:05,VALID,1004.46,VALID,0,VALID,87.9152,VALID,0,VALID,24.3052,VALID,297,VALID,0.230078,
2009-07-05, 00:59:05,VALID,1004.43,VALID,0,VALID,87.6863,VALID,0,VALID,24.2857,VALID,358,VALID,0.814453,
2009-07-05, 01:00:05,VALID,1004.4,VALID,0,VALID,87.816,VALID,0,VALID,24.3265,VALID,13,VALID,0.594531,
2009-07-05, 01:01:05,VALID,1004.38,VALID,0,VALID,87.7626,VALID,0,VALID,24.3052,VALID,349,VALID,0.728516,
2009-07-05, 01:02:05,VALID,1004.4,VALID,0,VALID,88.0296,VALID,0,VALID,24.3052,VALID,352,VALID,0.292578,
2009-07-05, 01:03:05,VALID,1004.39,VALID,0,VALID,88.1899,VALID,0,VALID,24.2839,VALID,352,VALID,0.304297,
2009-07-05, 01:04:05,VALID,1004.39,VALID,0,VALID,88.3195,VALID,0,VALID,24.2662,VALID,352,VALID,0.246875,
2009-07-05, 01:05:05,VALID,1004.36,VALID,0,VALID,88.4721,VALID,0,VALID,24.2273,VALID,355,VALID,0.506641,
2009-07-05, 01:06:05,VALID,1004.37,VALID,0,VALID,88.8765,VALID,0.100563,VALID,24.2078,VALID,356,VALID,0.352344,
2009-07-05, 01:07:05,VALID,1004.36,VALID,0,VALID,88.8612,VALID,0.100563,VALID,24.1689,VALID,353,VALID,0.524219,
2009-07-05, 01:08:05,VALID,1004.36,VALID,0,VALID,89.2274,VALID,0.100563,VALID,24.1494,VALID,353,VALID,0.401953,
2009-07-05, 01:09:05,VALID,1004.32,VALID,0,VALID,89.5249,VALID,0.100563,VALID,24.1105,VALID,353,VALID,0.205859,
2009-07-05, 01:10:05,VALID,1004.3,VALID,0,VALID,89.6927,VALID,0.100563,VALID,24.091,VALID,353,VALID,0,
2009-07-05, 01:11:05,VALID,1004.27,VALID,0,VALID,89.7233,VALID,0.100563,VALID,24.0716,VALID,353,VALID,0,
2009-07-05, 01:12:05,VALID,1004.27,VALID,0,VALID,89.6927,VALID,0,VALID,24.0326,VALID,350,VALID,0.207813,
2009-07-05, 01:13:05,VALID,1004.24,VALID,0,VALID,89.8224,VALID,0.100563,VALID,24.0521,VALID,350,VALID,0.183984,
2009-07-05, 01:14:05,VALID,1004.18,VALID,0,VALID,89.7767,VALID,0.100563,VALID,24.0521,VALID,323,VALID,0.451562,
2009-07-05, 01:15:05,VALID,1004.19,VALID,0,VALID,89.7233,VALID,0,VALID,24.0521,VALID,344,VALID,0.884375,
2009-07-05, 01:16:05,VALID,1004.13,VALID,0,VALID,89.6927,VALID,0.100563,VALID,24.0929,VALID,342,VALID,0.00351562,
2009-07-05, 01:17:05,VALID,1004.12,VALID,0,VALID,89.7233,VALID,0.100563,VALID,24.0697,VALID,348,VALID,0.460547,
2009-07-05, 01:18:05,VALID,1004.11,VALID,0,VALID,89.4791,VALID,0.100563,VALID,24.13,VALID,343,VALID,0.820313,
2009-07-05, 01:19:05,VALID,1004.07,VALID,0,VALID,89.2884,VALID,0.100563,VALID,24.1671,VALID,359,VALID,0.745313,
2009-07-05, 01:20:05,VALID,1004.06,VALID,0,VALID,89.1358,VALID,0.100563,VALID,24.2273,VALID,4,VALID,0.357812,
2009-07-05, 01:21:05,VALID,1004.06,VALID,0,VALID,88.968,VALID,0.100563,VALID,24.2644,VALID,353,VALID,0.673047,
2009-07-05, 01:22:05,VALID,1004.04,VALID,0,VALID,88.8841,VALID,0.100563,VALID,24.3052,VALID,347,VALID,0.714063,
2009-07-05, 01:23:05,VALID,1004.03,VALID,0,VALID,88.7544,VALID,0.100563,VALID,24.3246,VALID,351,VALID,0.749219,
2009-07-05, 01:24:05,VALID,1004,VALID,0,VALID,88.4798,VALID,0.100563,VALID,24.383,VALID,360,VALID,1.19297,
2009-07-05, 01:25:05,VALID,1003.99,VALID,0,VALID,88.3348,VALID,0.100563,VALID,24.4414,VALID,348,VALID,0.940625,
2009-07-05, 01:26:05,VALID,1003.97,VALID,0,VALID,87.9839,VALID,0.100563,VALID,24.4804,VALID,336,VALID,1.07539,
2009-07-05, 01:27:05,VALID,1003.96,VALID,0,VALID,87.3736,VALID,0,VALID,24.5388,VALID,356,VALID,0.924609,
2009-07-05, 01:28:05,VALID,1003.96,VALID,0,VALID,87.015,VALID,0.100563,VALID,24.6166,VALID,344,VALID,0.730469,
2009-07-05, 01:29:05,VALID,1003.95,VALID,0,VALID,86.8777,VALID,0,VALID,24.6732,VALID,307,VALID,0.452344,
2009-07-05, 01:30:05,VALID,1003.93,VALID,0,VALID,86.7404,VALID,0.100563,VALID,24.714,VALID,348,VALID,0.501953,
2009-07-05, 01:31:05,VALID,1003.92,VALID,0,VALID,86.6107,VALID,0,VALID,24.7353,VALID,349,VALID,0.303906,
2009-07-05, 01:32:05,VALID,1003.89,VALID,0,VALID,86.5725,VALID,0.100563,VALID,24.714,VALID,202,VALID,0.460938,
2009-07-05, 01:33:05,VALID,1003.88,VALID,0,VALID,86.2216,VALID,0.100563,VALID,24.7335,VALID,350,VALID,0.953516,
2009-07-05, 01:34:05,VALID,1003.89,VALID,0,VALID,86.2292,VALID,0.100563,VALID,24.751,VALID,338,VALID,0.602734,
2009-07-05, 01:35:05,VALID,1003.89,VALID,0,VALID,86.3132,VALID,0.100563,VALID,24.7724,VALID,294,VALID,0.417578,
2009-07-05, 01:36:05,VALID,1003.87,VALID,0,VALID,86.1301,VALID,0.100563,VALID,24.7529,VALID,348,VALID,0.557813,
2009-07-05, 01:37:05,VALID,1003.88,VALID,0,VALID,86.1529,VALID,0,VALID,24.751,VALID,339,VALID,0.578516,
2009-07-05, 01:38:05,VALID,1003.88,VALID,0,VALID,86.1606,VALID,0.100563,VALID,24.7297,VALID,343,VALID,0.717188,
2009-07-05, 01:39:05,VALID,1003.89,VALID,0,VALID,86.0385,VALID,0.100563,VALID,24.7724,VALID,351,VALID,1.13516,
2009-07-05, 01:40:05,VALID,1003.86,VALID,0,VALID,86.069,VALID,0.100563,VALID,24.7724,VALID,351,VALID,0.864062,
2009-07-05, 01:41:05,VALID,1003.88,VALID,0,VALID,86.0461,VALID,0.100563,VALID,24.7919,VALID,337,VALID,0.623047,
2009-07-05, 01:42:05,VALID,1003.86,VALID,0,VALID,86.008,VALID,0.100563,VALID,24.751,VALID,357,VALID,1.03633,
2009-07-05, 01:43:05,VALID,1003.88,VALID,0,VALID,86.2445,VALID,0.100563,VALID,24.7724,VALID,2,VALID,0.423438,
2009-07-05, 01:44:05,VALID,1003.86,VALID,0,VALID,86.3132,VALID,0.100563,VALID,24.7529,VALID,338,VALID,0.579297,
2009-07-05, 01:45:05,VALID,1003.87,VALID,0,VALID,86.4047,VALID,0.100563,VALID,24.7335,VALID,351,VALID,0.467969,
2009-07-05, 01:46:05,VALID,1003.87,VALID,0,VALID,86.5954,VALID,0.100563,VALID,24.7353,VALID,351,VALID,0.319531,
2009-07-05, 01:47:05,VALID,1003.89,VALID,0,VALID,86.6031,VALID,0.100563,VALID,24.6945,VALID,316,VALID,0.462109,
2009-07-05, 01:48:05,VALID,1003.9,VALID,0,VALID,86.5725,VALID,0.100563,VALID,24.6964,VALID,353,VALID,0.773828,
2009-07-05, 01:49:05,VALID,1003.87,VALID,0,VALID,86.3284,VALID,0.100563,VALID,24.714,VALID,333,VALID,0.884766,
2009-07-05, 01:50:05,VALID,1003.85,VALID,0,VALID,86.4123,VALID,0.100563,VALID,24.7724,VALID,308,VALID,0.283594,
2009-07-05, 01:51:05,VALID,1003.86,VALID,0,VALID,86.0614,VALID,0.100563,VALID,24.7724,VALID,348,VALID,0.623438,
2009-07-05, 01:52:05,VALID,1003.86,VALID,0,VALID,86.1377,VALID,0.100563,VALID,24.7919,VALID,332,VALID,0.700781,
2009-07-05, 01:53:05,VALID,1003.85,VALID,0,VALID,86.2521,VALID,0.100563,VALID,24.7705,VALID,359,VALID,0.103906,
2009-07-05, 01:54:05,VALID,1003.85,VALID,0,VALID,86.0995,VALID,0.100563,VALID,24.7724,VALID,1,VALID,0.794922,
2009-07-05, 01:55:05,VALID,1003.83,VALID,0,VALID,86.1606,VALID,0.100563,VALID,24.7919,VALID,326,VALID,0.33125,
2009-07-05, 01:56:05,VALID,1003.82,VALID,0,VALID,86.0919,VALID,0.100563,VALID,24.7724,VALID,290,VALID,0.225781,
2009-07-05, 01:57:05,VALID,1003.79,VALID,0,VALID,86.336,VALID,0,VALID,24.7743,VALID,282,VALID,0.259375,
2009-07-05, 01:58:05,VALID,1003.78,VALID,0,VALID,86.3132,VALID,0,VALID,24.7353,VALID,300,VALID,0.868359,
2009-07-05, 01:59:05,VALID,1003.77,VALID,0,VALID,86.42,VALID,0,VALID,24.7353,VALID,285,VALID,0.957812,
2009-07-05, 02:00:05,VALID,1003.76,VALID,0,VALID,86.481,VALID,0,VALID,24.7159,VALID,286,VALID,1.03828,
2009-07-05, 02:01:05,VALID,1003.73,VALID,0,VALID,86.5649,VALID,0,VALID,24.6964,VALID,292,VALID,0.461719,
2009-07-05, 02:02:05,VALID,1003.7,VALID,0,VALID,86.7633,VALID,0,VALID,24.6769,VALID,284,VALID,0.492578,
2009-07-05, 02:03:05,VALID,1003.68,VALID,0,VALID,86.8472,VALID,0,VALID,24.6574,VALID,293,VALID,0.810938,
2009-07-05, 02:04:05,VALID,1003.66,VALID,0,VALID,86.9464,VALID,0,VALID,24.6185,VALID,338,VALID,0.239453,
2009-07-05, 02:05:05,VALID,1003.67,VALID,0,VALID,86.954,VALID,0,VALID,24.599,VALID,322,VALID,0.133594,
2009-07-05, 02:06:05,VALID,1003.65,VALID,0,VALID,87.1218,VALID,0,VALID,24.5582,VALID,321,VALID,0.128516,
2009-07-05, 02:07:05,VALID,1003.61,VALID,0,VALID,87.2439,VALID,0,VALID,24.5601,VALID,321,VALID,0.0351563,
2009-07-05, 02:08:05,VALID,1003.65,VALID,0,VALID,87.5185,VALID,0,VALID,24.5017,VALID,321,VALID,0,
2009-07-05, 02:09:05,VALID,1003.67,VALID,0,VALID,87.7016,VALID,0,VALID,24.4433,VALID,321,VALID,0.0304688,
2009-07-05, 02:10:05,VALID,1003.67,VALID,0,VALID,87.9076,VALID,0,VALID,24.4043,VALID,321,VALID,0.187109,
2009-07-05, 02:11:05,VALID,1003.7,VALID,0,VALID,88.1517,VALID,0,VALID,24.3441,VALID,321,VALID,0.327344,
2009-07-05, 02:12:05,VALID,1003.7,VALID,0,VALID,88.3958,VALID,0,VALID,24.3265,VALID,321,VALID,0.348437,
2009-07-05, 02:13:05,VALID,1003.7,VALID,0,VALID,88.6552,VALID,0,VALID,24.2681,VALID,321,VALID,0.288672,
2009-07-05, 02:14:05,VALID,1003.71,VALID,0,VALID,88.8536,VALID,0,VALID,24.231,VALID,321,VALID,0.170312,
2009-07-05, 02:15:05,VALID,1003.73,VALID,0,VALID,89.1282,VALID,0,VALID,24.1707,VALID,321,VALID,0.282031,
2009-07-05, 02:16:05,VALID,1003.75,VALID,0,VALID,89.3723,VALID,0,VALID,24.1123,VALID,321,VALID,0,
2009-07-05, 02:17:05,VALID,1003.74,VALID,0,VALID,89.5936,VALID,0,VALID,24.0929,VALID,321,VALID,0.003125,
2009-07-05, 02:18:05,VALID,1003.75,VALID,0,VALID,89.8682,VALID,0,VALID,24.015,VALID,330,VALID,0.633594,
2009-07-05, 02:19:05,VALID,1003.76,VALID,0,VALID,90.0742,VALID,0,VALID,24.0168,VALID,337,VALID,0.235156,
2009-07-05, 02:20:05,VALID,1003.76,VALID,0,VALID,90.2344,VALID,0,VALID,23.9973,VALID,358,VALID,0.379297,
2009-07-05, 02:21:05,VALID,1003.76,VALID,0,VALID,90.3031,VALID,0,VALID,23.9761,VALID,358,VALID,0.266016,
2009-07-05, 02:22:05,VALID,1003.77,VALID,0,VALID,90.387,VALID,0,VALID,23.9761,VALID,337,VALID,0.486328,
2009-07-05, 02:23:05,VALID,1003.77,VALID,0,VALID,90.387,VALID,0,VALID,23.9761,VALID,350,VALID,0.21875,
2009-07-05, 02:24:05,VALID,1003.77,VALID,0,VALID,90.3565,VALID,0,VALID,23.9761,VALID,352,VALID,0.347656,
2009-07-05, 02:25:05,VALID,1003.73,VALID,0,VALID,90.3717,VALID,0,VALID,23.9761,VALID,7,VALID,0.339844,
2009-07-05, 02:26:05,VALID,1003.73,VALID,0,VALID,90.3946,VALID,0,VALID,23.9761,VALID,7,VALID,0.0359375,
2009-07-05, 02:27:05,VALID,1003.7,VALID,0,VALID,90.5014,VALID,0.100563,VALID,23.9548,VALID,325,VALID,0.495703,
2009-07-05, 02:28:05,VALID,1003.67,VALID,0,VALID,90.5472,VALID,0.100563,VALID,23.9353,VALID,350,VALID,0.266406,
2009-07-05, 02:29:05,VALID,1003.66,VALID,0,VALID,90.593,VALID,0,VALID,23.9548,VALID,9,VALID,0.390625,
2009-07-05, 02:30:05,VALID,1003.65,VALID,0,VALID,90.5777,VALID,0.100563,VALID,23.9548,VALID,358,VALID,0.232812,
2009-07-05, 02:31:05,VALID,1003.66,VALID,0,VALID,90.5701,VALID,0,VALID,23.9353,VALID,358,VALID,0.359375,
2009-07-05, 02:32:05,VALID,1003.64,VALID,0,VALID,90.6006,VALID,0.100563,VALID,23.9159,VALID,358,VALID,0.170312,
2009-07-05, 02:33:05,VALID,1003.64,VALID,0,VALID,90.6464,VALID,0.100563,VALID,23.8964,VALID,349,VALID,0.630078,
2009-07-05, 02:34:05,VALID,1003.63,VALID,0,VALID,90.6845,VALID,0.100563,VALID,23.8769,VALID,347,VALID,0.751562,
2009-07-05, 02:35:05,VALID,1003.64,VALID,0,VALID,90.8829,VALID,0,VALID,23.8964,VALID,345,VALID,0.887891,
2009-07-05, 02:36:05,VALID,1003.64,VALID,0,VALID,90.8752,VALID,0.100563,VALID,23.9159,VALID,347,VALID,0.587891,
2009-07-05, 02:37:05,VALID,1003.63,VALID,0,VALID,90.7684,VALID,0,VALID,23.9353,VALID,345,VALID,0.633594,
2009-07-05, 02:38:05,VALID,1003.61,VALID,0,VALID,90.7608,VALID,0,VALID,23.9353,VALID,354,VALID,0.954687,
2009-07-05, 02:39:05,VALID,1003.61,VALID,0,VALID,90.7074,VALID,0.100563,VALID,23.9335,VALID,357,VALID,0.40625,
2009-07-05, 02:40:05,VALID,1003.62,VALID,0,VALID,90.6692,VALID,0.100563,VALID,23.9548,VALID,351,VALID,0.707422,
2009-07-05, 02:41:05,VALID,1003.62,VALID,0,VALID,90.7532,VALID,0.100563,VALID,23.9335,VALID,356,VALID,0.729297,
2009-07-05, 02:42:05,VALID,1003.65,VALID,0,VALID,90.715,VALID,0,VALID,23.9566,VALID,355,VALID,0.733594,
2009-07-05, 02:43:05,VALID,1003.64,VALID,0,VALID,90.7532,VALID,0,VALID,23.9371,VALID,343,VALID,0.704687,
2009-07-05, 02:44:05,VALID,1003.66,VALID,0,VALID,90.7455,VALID,0,VALID,23.9371,VALID,342,VALID,0.437891,
2009-07-05, 02:45:05,VALID,1003.64,VALID,0,VALID,90.7684,VALID,0,VALID,23.9371,VALID,350,VALID,0.788672,
2009-07-05, 02:46:05,VALID,1003.64,VALID,0,VALID,90.8142,VALID,0,VALID,23.9177,VALID,319,VALID,0.506641,
2009-07-05, 02:47:05,VALID,1003.65,VALID,0,VALID,90.7989,VALID,0,VALID,23.9177,VALID,332,VALID,0.401563,
2009-07-05, 02:48:05,VALID,1003.65,VALID,0,VALID,90.8218,VALID,0,VALID,23.8982,VALID,333,VALID,0.119141,
2009-07-05, 02:49:05,VALID,1003.67,VALID,0,VALID,90.8905,VALID,0,VALID,23.8982,VALID,333,VALID,0,
2009-07-05, 02:50:05,VALID,1003.67,VALID,0,VALID,91.0049,VALID,0,VALID,23.8787,VALID,302,VALID,0.245703,
2009-07-05, 02:51:05,VALID,1003.67,VALID,0,VALID,91.0431,VALID,0,VALID,23.8787,VALID,302,VALID,0.130469,
2009-07-05, 02:52:04,VALID,1003.67,VALID,0,VALID,91.1193,VALID,0,VALID,23.8787,VALID,312,VALID,0.229687,
2009-07-05, 02:53:04,VALID,1003.68,VALID,0,VALID,91.2262,VALID,0,VALID,23.8593,VALID,343,VALID,0.613672,
2009-07-05, 02:54:04,VALID,1003.69,VALID,0,VALID,91.3635,VALID,0,VALID,23.8787,VALID,352,VALID,0.811719,
2009-07-05, 02:55:04,VALID,1003.68,VALID,0,VALID,91.3024,VALID,0,VALID,23.8787,VALID,354,VALID,0.306641,
2009-07-05, 02:56:04,VALID,1003.67,VALID,0,VALID,91.2872,VALID,0,VALID,23.8787,VALID,354,VALID,0.266406,
2009-07-05, 02:57:04,VALID,1003.66,VALID,0,VALID,91.2567,VALID,0,VALID,23.8575,VALID,348,VALID,0.608594,
2009-07-05, 02:58:04,VALID,1003.68,VALID,0,VALID,91.2185,VALID,0,VALID,23.8787,VALID,347,VALID,0.398438,
2009-07-05, 02:59:04,VALID,1003.69,VALID,0,VALID,91.188,VALID,0,VALID,23.8769,VALID,349,VALID,0.578906,
2009-07-05, 03:00:04,VALID,1003.69,VALID,0,VALID,91.2338,VALID,0,VALID,23.8575,VALID,347,VALID,0.509766,
2009-07-05, 03:01:04,VALID,1003.75,VALID,0,VALID,91.2262,VALID,0,VALID,23.838,VALID,347,VALID,0.0234375,
2009-07-05, 03:02:04,VALID,1003.76,VALID,0,VALID,91.2262,VALID,0,VALID,23.8593,VALID,341,VALID,0.0667969,
2009-07-05, 03:03:04,VALID,1003.76,VALID,0,VALID,91.3558,VALID,0,VALID,23.8398,VALID,340,VALID,0.442187,
2009-07-05, 03:04:04,VALID,1003.77,VALID,0,VALID,91.3635,VALID,0,VALID,23.8398,VALID,335,VALID,0.0679687,
2009-07-05, 03:05:04,VALID,1003.79,VALID,0,VALID,91.4321,VALID,0,VALID,23.8398,VALID,351,VALID,0.864844,
2009-07-05, 03:06:04,VALID,1003.82,VALID,0,VALID,91.4321,VALID,0,VALID,23.8398,VALID,340,VALID,0.308984,
2009-07-05, 03:07:04,VALID,1003.83,VALID,0,VALID,91.4626,VALID,0,VALID,23.8185,VALID,338,VALID,0.501172,
2009-07-05, 03:08:04,VALID,1003.81,VALID,0,VALID,91.4703,VALID,0,VALID,23.8185,VALID,294,VALID,0.335938,
2009-07-05, 03:09:04,VALID,1003.8,VALID,0,VALID,91.4321,VALID,0,VALID,23.8593,VALID,346,VALID,0.597656,
2009-07-05, 03:10:04,VALID,1003.8,VALID,0,VALID,91.4321,VALID,0,VALID,23.8398,VALID,349,VALID,0.177734,
2009-07-05, 03:11:04,VALID,1003.81,VALID,0,VALID,91.3864,VALID,0,VALID,23.8185,VALID,354,VALID,0.18125,
2009-07-05, 03:12:04,VALID,1003.78,VALID,0,VALID,91.394,VALID,0,VALID,23.8398,VALID,348,VALID,0.296484,
2009-07-05, 03:13:04,VALID,1003.79,VALID,0,VALID,91.3787,VALID,0,VALID,23.8398,VALID,347,VALID,0.376172,
2009-07-05, 03:14:04,VALID,1003.79,VALID,0,VALID,91.333,VALID,0,VALID,23.8593,VALID,347,VALID,0.00195313,
2009-07-05, 03:15:04,VALID,1003.79,VALID,0,VALID,91.333,VALID,0,VALID,23.8203,VALID,347,VALID,0,
2009-07-05, 03:16:04,VALID,1003.76,VALID,0,VALID,91.3864,VALID,0,VALID,23.7796,VALID,347,VALID,0,
2009-07-05, 03:17:04,VALID,1003.74,VALID,0,VALID,91.4321,VALID,0,VALID,23.7814,VALID,347,VALID,0,
2009-07-05, 03:18:04,VALID,1003.74,VALID,0,VALID,91.5237,VALID,0,VALID,23.7832,VALID,340,VALID,0.222266,
2009-07-05, 03:19:04,VALID,1003.74,VALID,0,VALID,91.5847,VALID,0,VALID,23.7619,VALID,338,VALID,0.231641,
2009-07-05, 03:20:04,VALID,1003.75,VALID,0,VALID,91.6076,VALID,0,VALID,23.7425,VALID,338,VALID,0,
2009-07-05, 03:21:04,VALID,1003.74,VALID,0,VALID,91.6305,VALID,0,VALID,23.723,VALID,338,VALID,0,
2009-07-05, 03:22:04,VALID,1003.76,VALID,0,VALID,91.7297,VALID,0,VALID,23.7035,VALID,338,VALID,0,
2009-07-05, 03:23:04,VALID,1003.77,VALID,0,VALID,91.7525,VALID,0,VALID,23.6646,VALID,338,VALID,0,
2009-07-05, 03:24:04,VALID,1003.77,VALID,0,VALID,91.8059,VALID,0,VALID,23.6452,VALID,338,VALID,0,
2009-07-05, 03:25:04,VALID,1003.76,VALID,0,VALID,91.867,VALID,0,VALID,23.6062,VALID,338,VALID,0,
2009-07-05, 03:26:04,VALID,1003.76,VALID,0,VALID,91.928,VALID,0,VALID,23.5868,VALID,338,VALID,0,
2009-07-05, 03:27:04,VALID,1003.77,VALID,0,VALID,91.9814,VALID,0,VALID,23.5266,VALID,338,VALID,0,
2009-07-05, 03:28:04,VALID,1003.75,VALID,0,VALID,92.0424,VALID,0,VALID,23.5266,VALID,338,VALID,0,
2009-07-05, 03:29:04,VALID,1003.73,VALID,0,VALID,92.1416,VALID,0,VALID,23.5089,VALID,338,VALID,0,
2009-07-05, 03:30:04,VALID,1003.7,VALID,0,VALID,92.2789,VALID,0,VALID,23.4894,VALID,338,VALID,0,
2009-07-05, 03:31:04,VALID,1003.71,VALID,0,VALID,92.3629,VALID,0,VALID,23.5089,VALID,338,VALID,0,
2009-07-05, 03:32:04,VALID,1003.74,VALID,0,VALID,92.4163,VALID,0,VALID,23.47,VALID,338,VALID,0,
2009-07-05, 03:33:04,VALID,1003.71,VALID,0,VALID,92.5231,VALID,0,VALID,23.47,VALID,338,VALID,0,
2009-07-05, 03:34:04,VALID,1003.72,VALID,0,VALID,92.5536,VALID,0,VALID,23.4311,VALID,338,VALID,0,
2009-07-05, 03:35:04,VALID,1003.71,VALID,0,VALID,92.6222,VALID,0,VALID,23.4098,VALID,338,VALID,0,
2009-07-05, 03:36:04,VALID,1003.68,VALID,0,VALID,92.668,VALID,0,VALID,23.3921,VALID,338,VALID,0,
2009-07-05, 03:37:04,VALID,1003.68,VALID,0,VALID,92.7138,VALID,0,VALID,23.3514,VALID,338,VALID,0,
2009-07-05, 03:38:04,VALID,1003.7,VALID,0,VALID,92.7443,VALID,0,VALID,23.3532,VALID,338,VALID,0,
2009-07-05, 03:39:04,VALID,1003.7,VALID,0,VALID,92.7977,VALID,0,VALID,23.3125,VALID,338,VALID,0,
2009-07-05, 03:40:04,VALID,1003.72,VALID,0,VALID,92.8587,VALID,0,VALID,23.3143,VALID,338,VALID,0,
2009-07-05, 03:41:04,VALID,1003.71,VALID,0,VALID,92.935,VALID,0,VALID,23.2754,VALID,338,VALID,0,
2009-07-05, 03:42:04,VALID,1003.72,VALID,0,VALID,92.9579,VALID,0,VALID,23.2364,VALID,338,VALID,0,